QMR-KWT (48943 NORAD) Tracking and Keplerian Element Data

This shows tracking and keplerian element data for the satellite.

Feedback or suggestion? Click here.




ElementValue
Catalog48943
NameQMR-KWT
Epoch Orbit1388
Epoch Day268.61703373
Epoch Year2021
RAAN36.149
Inclination97.5215
Eccentricity0.0007718
Argument of Perigee300.5318
Mean Anonmoly59.5151
Mean Motion15.13366839
Decay Rate2.415E-05
L11 48943U 21059BS 21268.61703373 .00002415 00000-0 13905-3 0 9997
L22 48943 97.5215 36.1490 0007718 300.5318 59.5151 15.13366839 13886

Live tracking and technical data element details for QMR-KWT (NORAD 48943). QMR-KWT can be tracked NOW for your location showing map with azimuth and elevation plus other details from your city location.

Track the satellite on the map from your city or location and see movement details for azimuth, elevation, latitude, longitude, range, height, and movement on the map or in text.







IsCatalogInMostPopularTable: catalog: 48943, numindb: 22
Update: records affected: 1



GetName: 48943 QMR-KWT

Hit Count: updated at: Sun, 26 Sep 2021 16:17:22 GMT